Regional Weather Roundup
Issued by NWS Green Bay, WI

Home | Current Version | Previous Version | Text Only | Print | Product List | Glossary On
Versions: 1 2 3 4 5 6 7 8 9 10 11 12 13 14 15 16 17 18 19 20 21 22 23 24 25 26 27 28 29 30 31 32 33 34 35 36 37 38 39 40 41 42 43 44 45 46 47 48 49 50
000
ASUS43 KGRB 252100
RWRGRB

NORTH-CENTRAL AND NORTHEAST WISCONSIN REGIONAL WEATHER ROUNDUP
NATIONAL WEATHER SERVICE GREEN BAY WI
400 PM CDT MON MAY 25 2015

WIZ005-009-010>012-018-019-252200-
NORTH CENTRAL WISCONSIN

CITY           SKY/WX    TMP DP  RH WIND       PRES   REMARKS
IRONWOOD       CLOUDY    63  61  94 W9        29.67R
MANITOWISH WTR NOT AVBL
ARBOR VITAE    NOT AVBL
EAGLE RIVER    NOT AVBL
LAND O LAKES   NOT AVBL
RHINELANDER    CLOUDY    68  59  73 W16G24    29.74R
PHILLIPS       NOT AVBL
ANTIGO         NOT AVBL
TOMAHAWK       NOT AVBL
MERRILL        NOT AVBL
$$

WIZ013-073-252200-
NORTHEAST WISCONSIN

CITY           SKY/WX    TMP DP  RH WIND       PRES   REMARKS
IRON MOUNTAIN  CLOUDY    69  62  78 SW10      29.70R
MARINETTE      PTSUNNY   72  61  68 W13G18    29.72R
$$

WIZ017-030-035>037-045-252200-
CENTRAL WISCONSIN

CITY           SKY/WX    TMP DP  RH WIND       PRES   REMARKS
MEDFORD        NOT AVBL
WAUSAU         CLOUDY    70  59  68 SW12G28   29.75R
MOSINEE        NOT AVBL
MARSHFIELD     PTSUNNY   74  60  61 SW16G23   29.76R
WISC RAPIDS    PTSUNNY   76  58  53 W15G22    29.78R
STEVENS POINT  NOT AVBL
WAUPACA        NOT AVBL
SHAWANO        NOT AVBL
CLINTONVILLE   NOT AVBL
$$

WIZ038-039-048-051-252200-
FOX VALLEY

CITY           SKY/WX    TMP DP  RH WIND       PRES   REMARKS
NWS GREEN BAY  PTSUNNY   76  62  62 SW21G28   29.75S
APPLETON       PTSUNNY   75  61  60 SW21G28   29.78R
OSHKOSH        MOSUNNY   75  61  61 SW12G22   29.78R
FOND DU LAC    PTSUNNY   76  61  59 SW15G25   29.81R
$$

WIZ022-050-052-252200-
EAST CENTRAL WISCONSIN

CITY           SKY/WX    TMP DP  RH WIND       PRES   REMARKS
STURGEON BAY   PTSUNNY   73  63  68 SW22G30   29.76S
MANITOWOC      NOT AVBL
SHEBOYGAN      SUNNY     76  63  64 SW17G26   29.80R
$$

LMZ563-521-522-541>543-252200-
LAKESHORE

STATION/POSITION TIME  TEMP    WIND        PRES    VSBY  WAVE
                       AIR SEA DIR/SP/G                  HT/PER
                 (UTC) (F)     (DEG/KT/KT) (MB)    (MI)  (FT/S)
SHEBOYGAN LKSHOR 2000          240/ 22/ 27 1008.9R
KEWAUNEE LKSHORE 2000   62     180/ 12/ 15 1006.9R
NORTHPORT PIER   2000   58     140/  7/ 10 1006.4R
N MID LAKE BUOY  1950   44 37  200/ 21/ 23 1006.4R         4/ 5
SISTER BAY LKSHO 2017   69     230/ 17/ 20   N/A
CHAMBERS ISLAND  2000   66     160/  4/ 12 1006.8R
MENOMINEE LKSHOR 2000   73     220/ 16/ 22 1006.9R
$$



USA.gov is the U.S. government's official web portal to all federal, state and local government web resources and services.